INNOSAT 16 (RS92S7)

Last updated on Sun Jun 21 2026 00:03:20 GMT+0000 (Coordinated Universal Time)

1 64878U 25155C 26171.41302090 .00004643 00000+0 18603-3 0 9994 2 64878 97.4567 138.5303 0010935 164.3854 195.7723 15.25485147 81167
UTC large
Height (km)
Speed (km/s)
/
Latitude / Longitude
Inclination (degrees)
Orbital Period (minutes)
Azimuth
Elevation
Range (km)
Doppler Factor

Next 0 passes for location: London (51.5072 / 0.1276)

No passes found over London.
INNOSAT 16 (RS92S7)